Regional Weather Roundup
Issued by NWS

Home | Current Version | Previous Version | Graphics & Text | Print | Product List | Glossary On
Versions: 1 2 3 4 5 6 7 8 9 10 11 12 13 14 15 16 17 18 19 20 21 22 23 24 25 26 27 28 29 30 31 32 33 34 35 36 37 38 39 40 41 42 43 44 45 46 47 48 49 50
000
ASUS43 KIND 012109
RWRIN

WEATHER ROUNDUP FOR INDIANA
NATIONAL WEATHER SERVICE INDIANAPOLIS IN
500 PM EDT MON SEP 01 2014

NOTE: "FAIR" INDICATES FEW OR NO CLOUDS BELOW 12,000 FEET WITH NO
SIGNIFICANT WEATHER AND/OR OBSTRUCTIONS TO VISIBILITY.

* - STATION DOES NOT REPORT WEATHER SUCH AS PRECIPITATION OR FOG.

+ - STATION NOT QUALITY CONTROLLED BY THE NATIONAL WEATHER SERVICE.
    USE DATA WITH CAUTION...ESPECIALLY DEWPOINT AND RELATIVE
    HUMIDITY OBSERVATIONS.

INZ001>003-010>013-019-020-012200-
NORTHWEST INDIANA

CITY           SKY/WX    TMP DP  RH WIND       PRES   REMARKS
GARY /AIRPORT/ PTSUNNY   84  64  51 SW14G28   29.77F
KNOX *+        MOSUNNY   81  70  70 SW8       29.78F
LA PORTE +     MOSUNNY   82  68  63 SW12      29.79F
MICHIGAN CITY+ SUNNY     82  64  54 SW14      29.77F
MONTICELLO +   PTSUNNY   83  71  67 SW15G22   29.80F
RENSSELAER +   MOSUNNY   82  68  61 SW18      29.81S
VALPARAISO     PTSUNNY   83  68  60 SW13      29.79F

$$

LMZ046-743>745-012200-
SOUTHERN LAKE MICHIGAN

STATION/POSITION TIME  TEMP WIND        PRES
                       AIR  DIR/SP/G
                 (UTC) (F)  (DEG/KT/KT) (MB)
MICHIGAN CITY    2100   79  210/ 14/ 17   N/A

$$

INZ004-005-014>016-021>024-012200-
NORTH CENTRAL INDIANA

CITY           SKY/WX    TMP DP  RH WIND       PRES   REMARKS
ELKHART        MOSUNNY   81  73  78 SW10      29.79F
GOSHEN         PTSUNNY   85  70  60 W20G28    29.79S
LOGANSPORT +   PTSUNNY   81  70  69 SW16      29.83S
PERU/GRISSOM   PTSUNNY   77  75  94 SW15G26   29.83S
ROCHESTER +    PTSUNNY   84  72  65 SW20G26   29.81F
SOUTH BEND     MOSUNNY   84  70  62 SW20G25   29.78F
WARSAW +       PTSUNNY   82  70  65 SW9G23    29.80S

$$

INZ006>009-017-018-025>027-012200-
NORTHEAST INDIANA

CITY           SKY/WX    TMP DP  RH WIND       PRES   REMARKS
ANGOLA *+      MOSUNNY   82  77  83 SW14      29.79F
AUBURN +       PTSUNNY   81  70  69 SW14G21   29.81F
FORT WAYNE     CLOUDY    79  72  79 SW15      29.82F
HUNTINGTON +   LGT RAIN  73  70  88 W10       29.83R

$$

INZ028-029-035-036-043>045-051>053-012200-
WEST CENTRAL INDIANA

CITY           SKY/WX    TMP DP  RH WIND       PRES   REMARKS
GREENCASTLE +  CLOUDY    79  72  78 SW5       29.89S
LAFAYETTE      PTSUNNY   83  68  60 W17G26    29.82S
TERRE HAUTE    CLOUDY    82  70  66 SW13      29.88F

$$

INZ030>032-037>040-046>048-054>057-064-065-012200-
CENTRAL INDIANA

CITY           SKY/WX    TMP DP  RH WIND       PRES   REMARKS
CP ATTERBURY + CLOUDY    81  72  74 SW10      29.90F
FRANKFORT +    PTSUNNY   81  70  69 SW15G22   29.86S
GREENWOOD *+   CLOUDY    82  73  74 SW14G20   29.90S
INDIANAPOLIS   CLOUDY    81  71  71 SW21      29.88R
-EAGLE CREEK   CLOUDY    81  69  67 SW14G23   29.88R
KOKOMO *+      CLOUDY    81  72  74 SW18G26   29.84S
MARION +       CLOUDY    82  69  64 SW18G28   29.85S
MT COMFORT *+  CLOUDY    81  73  78 SW15G23   29.89S
SHELBYVILLE    CLOUDY    83  72  69 SW14      29.89S
ZIONSVILLE +   CLOUDY    82  69  65 SW16G22   29.88S

$$

INZ033-034-041-042-049-050-058-059-012200-
EAST CENTRAL INDIANA

CITY           SKY/WX    TMP DP  RH WIND       PRES   REMARKS
MUNCIE         TSTM      81  69  67 SW16G24   29.86S

$$

INZ060-061-067>069-081>083-085>088-012200-
SOUTHWEST INDIANA

CITY           SKY/WX    TMP DP  RH WIND       PRES   REMARKS
EVANSVILLE     CLOUDY    83  72  69 W7        29.93R
WASHINGTON +   CLOUDY    82  72  71 SW13      29.90S

$$

INZ062-063-066-070>080-084-089>092-012200-
SOUTH CENTRAL AND SOUTHEAST INDIANA

CITY           SKY/WX    TMP DP  RH WIND       PRES   REMARKS
BLOOMINGTON    CLOUDY    81  72  74 SW13      29.91S

$$



USA.gov is the U.S. government's official web portal to all federal, state and local government web resources and services.